owner,sensor,date,latitude,longitude,vertical_datum,wind_speed,wind_to_direction,wind_speed_of_gust,qcFlag 
COMPS,ioos:station:USF.COMPS:BGC:1,2014-01-01T00:00:00Z,26.4040,-81.8810,10.0,6.07,30.06,7.84,'1111122,1111122,1111122' 
COMPS,ioos:station:USF.COMPS:BGC:1,2014-01-01T00:06:00Z,26.4040,-81.8810,10.0,6.11,29.12,7.84,'1111122,1111122,1111122' 
COMPS,ioos:station:USF.COMPS:BGC:1,2014-01-01T00:12:00Z,26.4040,-81.8810,10.0,5.66,29.25,7.15,'1111122,1111122,1111122' 
COMPS,ioos:station:USF.COMPS:BGC:1,2014-01-01T00:18:00Z,26.4040,-81.8810,10.0,5.7,29.12,7.44,'1111122,1111122,1111122' 
COMPS,ioos:station:USF.COMPS:BGC:1,2014-01-01T00:24:00Z,26.4040,-81.8810,10.0,5.74,28.74,7.05,'1111122,1111122,1111122' 
COMPS,ioos:station:USF.COMPS:BGC:1,2014-01-01T00:30:00Z,26.4040,-81.8810,10.0,5.76,33.14,6.86,'1111122,1111122,1111122' 
COMPS,ioos:station:USF.COMPS:BGC:1,2014-01-01T00:36:00Z,26.4040,-81.8810,10.0,5.47,36.83,6.86,'1111122,1111122,1111122' 
COMPS,ioos:station:USF.COMPS:BGC:1,2014-01-01T00:42:00Z,26.4040,-81.8810,10.0,5.58,35.66,6.86,'1111122,1111122,1111122' 
COMPS,ioos:station:USF.COMPS:BGC:1,2014-01-01T00:48:00Z,26.4040,-81.8810,10.0,5.68,38.79,7.64,'1111122,1111122,1111122' 
COMPS,ioos:station:USF.COMPS:BGC:1,2014-01-01T00:54:00Z,26.4040,-81.8810,10.0,5.51,44.37,7.15,'1111122,1111122,1111122' 
COMPS,ioos:station:USF.COMPS:BGC:1,2014-01-01T01:00:00Z,26.4040,-81.8810,10.0,4.98,50.48,6.76,'1111122,1111122,1111122' 
COMPS,ioos:station:USF.COMPS:BGC:1,2014-01-01T01:06:00Z,26.4040,-81.8810,10.0,4.88,52.5,7.74,'1111122,1111122,1111122' 
COMPS,ioos:station:USF.COMPS:BGC:1,2014-01-01T01:12:00Z,26.4040,-81.8810,10.0,4.5,53.4,6.66,'1111122,1111122,1111122' 
COMPS,ioos:station:USF.COMPS:BGC:1,2014-01-01T01:18:00Z,26.4040,-81.8810,10.0,5.02,52.04,6.66,'1111122,1111122,1111122' 
COMPS,ioos:station:USF.COMPS:BGC:1,2014-01-01T01:24:00Z,26.4040,-81.8810,10.0,4.61,52.18,5.78,'1111122,1111122,1111122' 
COMPS,ioos:station:USF.COMPS:BGC:1,2014-01-01T01:30:00Z,26.4040,-81.8810,10.0,4.88,42.54,6.17,'1111122,1111122,1111122' 
COMPS,ioos:station:USF.COMPS:BGC:1,2014-01-01T01:36:00Z,26.4040,-81.8810,10.0,5.46,44.25,7.64,'1111122,1111122,1111122' 
COMPS,ioos:station:USF.COMPS:BGC:1,2014-01-01T01:42:00Z,26.4040,-81.8810,10.0,5.4,50.99,7.05,'1111122,1111122,1111122' 
COMPS,ioos:station:USF.COMPS:BGC:1,2014-01-01T01:48:00Z,26.4040,-81.8810,10.0,5.0,48.81,7.35,'1111122,1111122,1111122' 
COMPS,ioos:station:USF.COMPS:BGC:1,2014-01-01T01:54:00Z,26.4040,-81.8810,10.0,5.02,50.04,6.95,'1111122,1111122,1111122' 
COMPS,ioos:station:USF.COMPS:BGC:1,2014-01-01T02:00:00Z,26.4040,-81.8810,10.0,5.13,49.85,6.86,'1111122,1111122,1111122' 
COMPS,ioos:station:USF.COMPS:BGC:1,2014-01-01T02:06:00Z,26.4040,-81.8810,10.0,6.14,46.83,8.13,'1111122,1111122,1111122' 
COMPS,ioos:station:USF.COMPS:BGC:1,2014-01-01T02:12:00Z,26.4040,-81.8810,10.0,5.19,43.5,7.54,'1111122,1111122,1111122' 
COMPS,ioos:station:USF.COMPS:BGC:1,2014-01-01T02:18:00Z,26.4040,-81.8810,10.0,5.03,49.62,6.95,'1111122,1111122,1111122' 
COMPS,ioos:station:USF.COMPS:BGC:1,2014-01-01T02:24:00Z,26.4040,-81.8810,10.0,6.03,44.57,8.33,'1111122,1111122,1111122' 
COMPS,ioos:station:USF.COMPS:BGC:1,2014-01-01T02:30:00Z,26.4040,-81.8810,10.0,5.09,44.34,6.66,'1111122,1111122,1111122' 
COMPS,ioos:station:USF.COMPS:BGC:1,2014-01-01T02:36:00Z,26.4040,-81.8810,10.0,5.25,47.69,6.76,'1111122,1111122,1111122' 
COMPS,ioos:station:USF.COMPS:BGC:1,2014-01-01T02:42:00Z,26.4040,-81.8810,10.0,5.13,48.38,6.76,'1111122,1111122,1111122' 
COMPS,ioos:station:USF.COMPS:BGC:1,2014-01-01T02:48:00Z,26.4040,-81.8810,10.0,5.16,49.75,7.15,'1111122,1111122,1111122' 
COMPS,ioos:station:USF.COMPS:BGC:1,2014-01-01T02:54:00Z,26.4040,-81.8810,10.0,4.9,53.27,6.56,'1111122,1111122,1111122' 
COMPS,ioos:station:USF.COMPS:BGC:1,2014-01-01T03:00:00Z,26.4040,-81.8810,10.0,5.13,53.56,7.84,'1111122,1111122,1111122' 
COMPS,ioos:station:USF.COMPS:BGC:1,2014-01-01T03:06:00Z,26.4040,-81.8810,10.0,5.7,48.21,7.84,'1111122,1111122,1111122' 
COMPS,ioos:station:USF.COMPS:BGC:1,2014-01-01T03:12:00Z,26.4040,-81.8810,10.0,6.05,43.28,8.33,'1111122,1111122,1111122' 
COMPS,ioos:station:USF.COMPS:BGC:1,2014-01-01T03:18:00Z,26.4040,-81.8810,10.0,6.43,34.73,7.84,'1111122,1111122,1111122' 
COMPS,ioos:station:USF.COMPS:BGC:1,2014-01-01T03:24:00Z,26.4040,-81.8810,10.0,6.53,44.11,9.01,'1111122,1111122,1111122' 
COMPS,ioos:station:USF.COMPS:BGC:1,2014-01-01T03:30:00Z,26.4040,-81.8810,10.0,5.97,44.01,7.84,'1111122,1111122,1111122' 
COMPS,ioos:station:USF.COMPS:BGC:1,2014-01-01T03:36:00Z,26.4040,-81.8810,10.0,5.58,43.63,8.13,'1111122,1111122,1111122' 
COMPS,ioos:station:USF.COMPS:BGC:1,2014-01-01T03:42:00Z,26.4040,-81.8810,10.0,6.77,40.88,8.42,'1111122,1111122,1111122' 
COMPS,ioos:station:USF.COMPS:BGC:1,2014-01-01T03:48:00Z,26.4040,-81.8810,10.0,6.04,37.68,7.15,'1111122,1111122,1111122' 
COMPS,ioos:station:USF.COMPS:BGC:1,2014-01-01T03:54:00Z,26.4040,-81.8810,10.0,6.5,41.81,8.42,'1111122,1111122,1111122' 
COMPS,ioos:station:USF.COMPS:BGC:1,2014-01-01T04:00:00Z,26.4040,-81.8810,10.0,6.65,43.83,9.6,'1111122,1111122,1111122' 
COMPS,ioos:station:USF.COMPS:BGC:1,2014-01-01T04:06:00Z,26.4040,-81.8810,10.0,6.37,38.4,7.54,'1111122,1111122,1111122' 
COMPS,ioos:station:USF.COMPS:BGC:1,2014-01-01T04:12:00Z,26.4040,-81.8810,10.0,6.47,42.63,8.72,'1111122,1111122,1111122' 
COMPS,ioos:station:USF.COMPS:BGC:1,2014-01-01T04:18:00Z,26.4040,-81.8810,10.0,7.0,40.21,9.01,'1111122,1111122,1111122' 
COMPS,ioos:station:USF.COMPS:BGC:1,2014-01-01T04:24:00Z,26.4040,-81.8810,10.0,5.27,47.57,8.13,'1111122,1111122,1111122' 
COMPS,ioos:station:USF.COMPS:BGC:1,2014-01-01T04:30:00Z,26.4040,-81.8810,10.0,5.49,40.21,7.25,'1111122,1111122,1111122' 
COMPS,ioos:station:USF.COMPS:BGC:1,2014-01-01T04:36:00Z,26.4040,-81.8810,10.0,5.89,40.49,7.84,'1111122,1111122,1111122' 
COMPS,ioos:station:USF.COMPS:BGC:1,2014-01-01T04:42:00Z,26.4040,-81.8810,10.0,5.57,36.99,7.15,'1111122,1111122,1111122' 
COMPS,ioos:station:USF.COMPS:BGC:1,2014-01-01T04:48:00Z,26.4040,-81.8810,10.0,5.48,38.52,6.76,'1111122,1111122,1111122' 
COMPS,ioos:station:USF.COMPS:BGC:1,2014-01-01T04:54:00Z,26.4040,-81.8810,10.0,5.49,43.87,7.44,'1111122,1111122,1111122' 
COMPS,ioos:station:USF.COMPS:BGC:1,2014-01-01T05:00:00Z,26.4040,-81.8810,10.0,5.81,42.11,7.35,'1111122,1111122,1111122' 
COMPS,ioos:station:USF.COMPS:BGC:1,2014-01-01T05:06:00Z,26.4040,-81.8810,10.0,5.68,38.32,7.25,'1111122,1111122,1111122' 
COMPS,ioos:station:USF.COMPS:BGC:1,2014-01-01T05:12:00Z,26.4040,-81.8810,10.0,5.67,36.48,6.86,'1111122,1111122,1111122' 
COMPS,ioos:station:USF.COMPS:BGC:1,2014-01-01T05:18:00Z,26.4040,-81.8810,10.0,5.09,41.03,6.46,'1111122,1111122,1111122' 
COMPS,ioos:station:USF.COMPS:BGC:1,2014-01-01T05:24:00Z,26.4040,-81.8810,10.0,5.2,42.91,7.15,'1111122,1111122,1111122' 
COMPS,ioos:station:USF.COMPS:BGC:1,2014-01-01T05:30:00Z,26.4040,-81.8810,10.0,5.14,39.54,6.46,'1111122,1111122,1111122' 
COMPS,ioos:station:USF.COMPS:BGC:1,2014-01-01T05:36:00Z,26.4040,-81.8810,10.0,5.22,37.1,6.27,'1111122,1111122,1111122' 
COMPS,ioos:station:USF.COMPS:BGC:1,2014-01-01T05:42:00Z,26.4040,-81.8810,10.0,5.19,39.55,6.46,'1111122,1111122,1111122' 
COMPS,ioos:station:USF.COMPS:BGC:1,2014-01-01T05:48:00Z,26.4040,-81.8810,10.0,4.48,43.69,5.39,'1111122,1111122,1111122' 
COMPS,ioos:station:USF.COMPS:BGC:1,2014-01-01T05:54:00Z,26.4040,-81.8810,10.0,4.58,41.69,5.68,'1111122,1111122,1111122' 
COMPS,ioos:station:USF.COMPS:BGC:1,2014-01-01T06:00:00Z,26.4040,-81.8810,10.0,5.02,40.3,5.78,'1111122,1111122,1111122' 
COMPS,ioos:station:USF.COMPS:BGC:1,2014-01-01T06:06:00Z,26.4040,-81.8810,10.0,4.69,41.04,5.39,'1111122,1111122,1111122' 
COMPS,ioos:station:USF.COMPS:BGC:1,2014-01-01T06:12:00Z,26.4040,-81.8810,10.0,4.87,35.3,6.07,'1111122,1111122,1111122' 
COMPS,ioos:station:USF.COMPS:BGC:1,2014-01-01T06:18:00Z,26.4040,-81.8810,10.0,5.15,29.44,5.97,'1111122,1111122,1111122' 
COMPS,ioos:station:USF.COMPS:BGC:1,2014-01-01T06:24:00Z,26.4040,-81.8810,10.0,5.29,24.82,5.97,'1111122,1111122,1111122' 
COMPS,ioos:station:USF.COMPS:BGC:1,2014-01-01T06:30:00Z,26.4040,-81.8810,10.0,5.5,29.77,6.86,'1111122,1111122,1111122' 
COMPS,ioos:station:USF.COMPS:BGC:1,2014-01-01T06:36:00Z,26.4040,-81.8810,10.0,5.74,32.29,7.05,'1111122,1111122,1111122' 
COMPS,ioos:station:USF.COMPS:BGC:1,2014-01-01T06:42:00Z,26.4040,-81.8810,10.0,4.77,37.1,5.78,'1111122,1111122,1111122' 
COMPS,ioos:station:USF.COMPS:BGC:1,2014-01-01T06:48:00Z,26.4040,-81.8810,10.0,5.1,31.06,6.95,'1111122,1111122,1111122' 
COMPS,ioos:station:USF.COMPS:BGC:1,2014-01-01T06:54:00Z,26.4040,-81.8810,10.0,5.32,28.66,6.95,'1111122,1111122,1111122' 
COMPS,ioos:station:USF.COMPS:BGC:1,2014-01-01T07:00:00Z,26.4040,-81.8810,10.0,5.37,25.76,6.37,'1111122,1111122,1111122' 
COMPS,ioos:station:USF.COMPS:BGC:1,2014-01-01T07:06:00Z,26.4040,-81.8810,10.0,5.3,32.02,6.27,'1111122,1111122,1111122' 
COMPS,ioos:station:USF.COMPS:BGC:1,2014-01-01T07:12:00Z,26.4040,-81.8810,10.0,6.17,22.41,7.44,'1111122,1111122,1111122' 
COMPS,ioos:station:USF.COMPS:BGC:1,2014-01-01T07:18:00Z,26.4040,-81.8810,10.0,6.21,23.16,7.93,'1111122,1111122,1111122' 
COMPS,ioos:station:USF.COMPS:BGC:1,2014-01-01T07:24:00Z,26.4040,-81.8810,10.0,6.47,20.35,7.93,'1111122,1111122,1111122' 
COMPS,ioos:station:USF.COMPS:BGC:1,2014-01-01T07:30:00Z,26.4040,-81.8810,10.0,5.64,22.29,7.54,'1111122,1111122,1111122' 
COMPS,ioos:station:USF.COMPS:BGC:1,2014-01-01T07:36:00Z,26.4040,-81.8810,10.0,5.73,28.17,6.86,'1111122,1111122,1111122' 
COMPS,ioos:station:USF.COMPS:BGC:1,2014-01-01T07:42:00Z,26.4040,-81.8810,10.0,5.0,29.08,5.58,'1111122,1111122,1111122' 
COMPS,ioos:station:USF.COMPS:BGC:1,2014-01-01T07:48:00Z,26.4040,-81.8810,10.0,4.81,23.95,5.97,'1111122,1111122,1111122' 
COMPS,ioos:station:USF.COMPS:BGC:1,2014-01-01T07:54:00Z,26.4040,-81.8810,10.0,4.82,32.13,5.39,'1111122,1111122,1111122' 
COMPS,ioos:station:USF.COMPS:BGC:1,2014-01-01T08:00:00Z,26.4040,-81.8810,10.0,5.03,31.66,5.88,'1111122,1111122,1111122' 
COMPS,ioos:station:USF.COMPS:BGC:1,2014-01-01T08:06:00Z,26.4040,-81.8810,10.0,5.37,32.74,6.27,'1111122,1111122,1111122' 
COMPS,ioos:station:USF.COMPS:BGC:1,2014-01-01T08:12:00Z,26.4040,-81.8810,10.0,4.79,36.56,5.78,'1111122,1111122,1111122' 
COMPS,ioos:station:USF.COMPS:BGC:1,2014-01-01T08:18:00Z,26.4040,-81.8810,10.0,5.09,30.85,6.46,'1111122,1111122,1111122' 
COMPS,ioos:station:USF.COMPS:BGC:1,2014-01-01T08:24:00Z,26.4040,-81.8810,10.0,5.18,26.19,5.97,'1111122,1111122,1111122' 
COMPS,ioos:station:USF.COMPS:BGC:1,2014-01-01T08:30:00Z,26.4040,-81.8810,10.0,5.35,30.17,6.37,'1111122,1111122,1111122' 
COMPS,ioos:station:USF.COMPS:BGC:1,2014-01-01T08:36:00Z,26.4040,-81.8810,10.0,4.65,32.49,5.88,'1111122,1111122,1111122' 
COMPS,ioos:station:USF.COMPS:BGC:1,2014-01-01T08:42:00Z,26.4040,-81.8810,10.0,4.79,35.22,6.56,'1111122,1111122,1111122' 
COMPS,ioos:station:USF.COMPS:BGC:1,2014-01-01T08:48:00Z,26.4040,-81.8810,10.0,4.86,32.6,5.97,'1111122,1111122,1111122' 
COMPS,ioos:station:USF.COMPS:BGC:1,2014-01-01T08:54:00Z,26.4040,-81.8810,10.0,4.94,30.74,5.78,'1111122,1111122,1111122' 
COMPS,ioos:station:USF.COMPS:BGC:1,2014-01-01T09:00:00Z,26.4040,-81.8810,10.0,4.89,30.33,5.68,'1111122,1111122,1111122' 
COMPS,ioos:station:USF.COMPS:BGC:1,2014-01-01T09:06:00Z,26.4040,-81.8810,10.0,4.31,37.95,5.09,'1111122,1111122,1111122' 
COMPS,ioos:station:USF.COMPS:BGC:1,2014-01-01T09:12:00Z,26.4040,-81.8810,10.0,4.31,36.84,5.39,'1111122,1111122,1111122' 
COMPS,ioos:station:USF.COMPS:BGC:1,2014-01-01T09:18:00Z,26.4040,-81.8810,10.0,4.33,32.48,5.09,'1111122,1111122,1111122' 
COMPS,ioos:station:USF.COMPS:BGC:1,2014-01-01T09:24:00Z,26.4040,-81.8810,10.0,4.82,23.35,5.58,'1111122,1111122,1111122' 
COMPS,ioos:station:USF.COMPS:BGC:1,2014-01-01T09:30:00Z,26.4040,-81.8810,10.0,5.38,16.85,6.46,'1111122,1111122,1111122' 
COMPS,ioos:station:USF.COMPS:BGC:1,2014-01-01T09:36:00Z,26.4040,-81.8810,10.0,5.64,18.22,6.76,'1111122,1111122,1111122' 
COMPS,ioos:station:USF.COMPS:BGC:1,2014-01-01T09:42:00Z,26.4040,-81.8810,10.0,4.88,24.07,5.78,'1111122,1111122,1111122' 
COMPS,ioos:station:USF.COMPS:BGC:1,2014-01-01T09:48:00Z,26.4040,-81.8810,10.0,5.22,23.79,6.27,'1111122,1111122,1111122' 
COMPS,ioos:station:USF.COMPS:BGC:1,2014-01-01T09:54:00Z,26.4040,-81.8810,10.0,5.49,25.98,6.46,'1111122,1111122,1111122' 
COMPS,ioos:station:USF.COMPS:BGC:1,2014-01-01T10:00:00Z,26.4040,-81.8810,10.0,5.75,24.18,6.86,'1111122,1111122,1111122' 
COMPS,ioos:station:USF.COMPS:BGC:1,2014-01-01T10:06:00Z,26.4040,-81.8810,10.0,5.38,26.41,6.46,'1111122,1111122,1111122' 
COMPS,ioos:station:USF.COMPS:BGC:1,2014-01-01T10:12:00Z,26.4040,-81.8810,10.0,5.13,26.56,6.66,'1111122,1111122,1111122' 
COMPS,ioos:station:USF.COMPS:BGC:1,2014-01-01T10:18:00Z,26.4040,-81.8810,10.0,4.97,30.69,5.97,'1111122,1111122,1111122' 
COMPS,ioos:station:USF.COMPS:BGC:1,2014-01-01T10:24:00Z,26.4040,-81.8810,10.0,5.17,34.6,6.76,'1111122,1111122,1111122' 
COMPS,ioos:station:USF.COMPS:BGC:1,2014-01-01T10:30:00Z,26.4040,-81.8810,10.0,5.04,35.48,6.86,'1111122,1111122,1111122' 
COMPS,ioos:station:USF.COMPS:BGC:1,2014-01-01T10:36:00Z,26.4040,-81.8810,10.0,4.26,41.84,5.48,'1111122,1111122,1111122' 
COMPS,ioos:station:USF.COMPS:BGC:1,2014-01-01T10:42:00Z,26.4040,-81.8810,10.0,4.18,36.14,4.99,'1111122,1111122,1111122' 
COMPS,ioos:station:USF.COMPS:BGC:1,2014-01-01T10:48:00Z,26.4040,-81.8810,10.0,4.04,34.24,5.09,'1111122,1111122,1111122' 
COMPS,ioos:station:USF.COMPS:BGC:1,2014-01-01T10:54:00Z,26.4040,-81.8810,10.0,4.15,30.68,4.99,'1111122,1111122,1111122' 
COMPS,ioos:station:USF.COMPS:BGC:1,2014-01-01T11:00:00Z,26.4040,-81.8810,10.0,4.17,35.35,4.99,'1111122,1111122,1111122' 
COMPS,ioos:station:USF.COMPS:BGC:1,2014-01-01T11:06:00Z,26.4040,-81.8810,10.0,4.61,30.74,5.29,'1111122,1111122,1111122' 
COMPS,ioos:station:USF.COMPS:BGC:1,2014-01-01T11:12:00Z,26.4040,-81.8810,10.0,4.62,36.96,5.68,'1111122,1111122,1111122' 
COMPS,ioos:station:USF.COMPS:BGC:1,2014-01-01T11:18:00Z,26.4040,-81.8810,10.0,4.1,40.62,4.99,'1111122,1111122,1111122' 
COMPS,ioos:station:USF.COMPS:BGC:1,2014-01-01T11:24:00Z,26.4040,-81.8810,10.0,4.01,39.15,4.8,'1111122,1111122,1111122' 
COMPS,ioos:station:USF.COMPS:BGC:1,2014-01-01T11:30:00Z,26.4040,-81.8810,10.0,4.26,37.79,4.9,'1111122,1111122,1111122' 
COMPS,ioos:station:USF.COMPS:BGC:1,2014-01-01T11:36:00Z,26.4040,-81.8810,10.0,4.08,33.27,4.9,'1111122,1111122,1111122' 
COMPS,ioos:station:USF.COMPS:BGC:1,2014-01-01T11:42:00Z,26.4040,-81.8810,10.0,3.9,38.98,4.9,'1111122,1111122,1111122' 
COMPS,ioos:station:USF.COMPS:BGC:1,2014-01-01T11:48:00Z,26.4040,-81.8810,10.0,3.85,38.34,4.9,'1111122,1111122,1111122' 
COMPS,ioos:station:USF.COMPS:BGC:1,2014-01-01T11:54:00Z,26.4040,-81.8810,10.0,3.77,42.6,4.5,'1111122,1111122,1111122' 
COMPS,ioos:station:USF.COMPS:BGC:1,2014-01-01T12:00:00Z,26.4040,-81.8810,10.0,4.11,38.77,5.09,'1111122,1111122,1111122' 
COMPS,ioos:station:USF.COMPS:BGC:1,2014-01-01T12:06:00Z,26.4040,-81.8810,10.0,4.25,30.72,5.09,'1111122,1111122,1111122' 
COMPS,ioos:station:USF.COMPS:BGC:1,2014-01-01T12:12:00Z,26.4040,-81.8810,10.0,4.29,26.8,5.19,'1111122,1111122,1111122' 
COMPS,ioos:station:USF.COMPS:BGC:1,2014-01-01T12:18:00Z,26.4040,-81.8810,10.0,4.1,31.0,4.8,'1111122,1111122,1111122' 
COMPS,ioos:station:USF.COMPS:BGC:1,2014-01-01T12:24:00Z,26.4040,-81.8810,10.0,4.2,35.98,5.48,'1111122,1111122,1111122' 
COMPS,ioos:station:USF.COMPS:BGC:1,2014-01-01T12:30:00Z,26.4040,-81.8810,10.0,3.96,41.03,4.8,'1111122,1111122,1111122' 
COMPS,ioos:station:USF.COMPS:BGC:1,2014-01-01T12:36:00Z,26.4040,-81.8810,10.0,3.85,34.84,4.7,'1111122,1111122,1111122' 
COMPS,ioos:station:USF.COMPS:BGC:1,2014-01-01T12:42:00Z,26.4040,-81.8810,10.0,4.41,23.71,5.09,'1111122,1111122,1111122' 
COMPS,ioos:station:USF.COMPS:BGC:1,2014-01-01T12:48:00Z,26.4040,-81.8810,10.0,4.76,26.28,5.48,'1111122,1111122,1111122' 
COMPS,ioos:station:USF.COMPS:BGC:1,2014-01-01T12:54:00Z,26.4040,-81.8810,10.0,4.8,30.63,5.88,'1111122,1111122,1111122' 
COMPS,ioos:station:USF.COMPS:BGC:1,2014-01-01T13:00:00Z,26.4040,-81.8810,10.0,4.88,31.21,5.78,'1111122,1111122,1111122' 
COMPS,ioos:station:USF.COMPS:BGC:1,2014-01-01T13:06:00Z,26.4040,-81.8810,10.0,3.66,34.05,5.09,'1111122,1111122,1111122' 
COMPS,ioos:station:USF.COMPS:BGC:1,2014-01-01T13:12:00Z,26.4040,-81.8810,10.0,4.41,37.76,5.48,'1111122,1111122,1111122' 
COMPS,ioos:station:USF.COMPS:BGC:1,2014-01-01T13:18:00Z,26.4040,-81.8810,10.0,4.7,33.28,5.48,'1111122,1111122,1111122' 
COMPS,ioos:station:USF.COMPS:BGC:1,2014-01-01T13:24:00Z,26.4040,-81.8810,10.0,4.41,31.32,5.39,'1111122,1111122,1111122' 
COMPS,ioos:station:USF.COMPS:BGC:1,2014-01-01T13:30:00Z,26.4040,-81.8810,10.0,4.52,26.23,5.19,'1111122,1111122,1111122' 
COMPS,ioos:station:USF.COMPS:BGC:1,2014-01-01T13:36:00Z,26.4040,-81.8810,10.0,4.31,28.08,5.29,'1111122,1111122,1111122' 
COMPS,ioos:station:USF.COMPS:BGC:1,2014-01-01T13:42:00Z,26.4040,-81.8810,10.0,3.95,32.72,4.5,'1111122,1111122,1111122' 
COMPS,ioos:station:USF.COMPS:BGC:1,2014-01-01T13:48:00Z,26.4040,-81.8810,10.0,3.67,36.64,4.31,'1111122,1111122,1111122' 
COMPS,ioos:station:USF.COMPS:BGC:1,2014-01-01T13:54:00Z,26.4040,-81.8810,10.0,4.06,37.41,5.29,'1111122,1111122,1111122' 
COMPS,ioos:station:USF.COMPS:BGC:1,2014-01-01T14:00:00Z,26.4040,-81.8810,10.0,4.05,37.4,5.09,'1111122,1111122,1111122' 
COMPS,ioos:station:USF.COMPS:BGC:1,2014-01-01T14:06:00Z,26.4040,-81.8810,10.0,3.77,45.42,5.29,'1111122,1111122,1111122' 
COMPS,ioos:station:USF.COMPS:BGC:1,2014-01-01T14:12:00Z,26.4040,-81.8810,10.0,3.52,52.3,4.9,'1111122,1111122,1111122' 
COMPS,ioos:station:USF.COMPS:BGC:1,2014-01-01T14:18:00Z,26.4040,-81.8810,10.0,3.52,55.05,4.8,'1111122,1111122,1111122' 
COMPS,ioos:station:USF.COMPS:BGC:1,2014-01-01T14:24:00Z,26.4040,-81.8810,10.0,3.62,52.62,5.09,'1111122,1111122,1111122' 
COMPS,ioos:station:USF.COMPS:BGC:1,2014-01-01T14:30:00Z,26.4040,-81.8810,10.0,3.99,57.17,5.19,'1111122,1111122,1111122' 
COMPS,ioos:station:USF.COMPS:BGC:1,2014-01-01T14:36:00Z,26.4040,-81.8810,10.0,4.24,61.33,5.68,'1111122,1111122,1111122' 
COMPS,ioos:station:USF.COMPS:BGC:1,2014-01-01T14:42:00Z,26.4040,-81.8810,10.0,4.36,59.76,6.37,'1111122,1111122,1111122' 
COMPS,ioos:station:USF.COMPS:BGC:1,2014-01-01T14:48:00Z,26.4040,-81.8810,10.0,4.13,60.51,5.68,'1111122,1111122,1111122' 
COMPS,ioos:station:USF.COMPS:BGC:1,2014-01-01T14:54:00Z,26.4040,-81.8810,10.0,3.81,56.87,5.29,'1111122,1111122,1111122' 
COMPS,ioos:station:USF.COMPS:BGC:1,2014-01-01T15:00:00Z,26.4040,-81.8810,10.0,3.55,62.9,5.29,'1111122,1111122,1111122' 
COMPS,ioos:station:USF.COMPS:BGC:1,2014-01-01T15:06:00Z,26.4040,-81.8810,10.0,3.58,67.52,5.78,'1111122,1111122,1111122' 
COMPS,ioos:station:USF.COMPS:BGC:1,2014-01-01T15:12:00Z,26.4040,-81.8810,10.0,4.27,75.95,6.07,'1111122,1111122,1111122' 
COMPS,ioos:station:USF.COMPS:BGC:1,2014-01-01T15:18:00Z,26.4040,-81.8810,10.0,4.88,82.79,7.54,'1111122,1111122,1111122' 
COMPS,ioos:station:USF.COMPS:BGC:1,2014-01-01T15:24:00Z,26.4040,-81.8810,10.0,4.38,82.89,7.74,'1111122,1111122,1111122' 
COMPS,ioos:station:USF.COMPS:BGC:1,2014-01-01T15:30:00Z,26.4040,-81.8810,10.0,3.44,77.4,5.09,'1111122,1111122,1111122' 
COMPS,ioos:station:USF.COMPS:BGC:1,2014-01-01T15:36:00Z,26.4040,-81.8810,10.0,4.11,81.73,6.17,'1111122,1111122,1111122' 
COMPS,ioos:station:USF.COMPS:BGC:1,2014-01-01T15:42:00Z,26.4040,-81.8810,10.0,4.42,86.3,7.44,'1111122,1111122,1111122' 
COMPS,ioos:station:USF.COMPS:BGC:1,2014-01-01T15:48:00Z,26.4040,-81.8810,10.0,3.42,80.32,5.48,'1111122,1111122,1111122' 
COMPS,ioos:station:USF.COMPS:BGC:1,2014-01-01T15:54:00Z,26.4040,-81.8810,10.0,3.64,78.19,5.19,'1111122,1111122,1111122' 
COMPS,ioos:station:USF.COMPS:BGC:1,2014-01-01T16:00:00Z,26.4040,-81.8810,10.0,4.02,78.1,5.29,'1111122,1111122,1111122' 
COMPS,ioos:station:USF.COMPS:BGC:1,2014-01-01T16:06:00Z,26.4040,-81.8810,10.0,3.53,82.7,6.76,'1111122,1111122,1111122' 
COMPS,ioos:station:USF.COMPS:BGC:1,2014-01-01T16:12:00Z,26.4040,-81.8810,10.0,4.4,88.42,5.97,'1111122,1111122,1111122' 
COMPS,ioos:station:USF.COMPS:BGC:1,2014-01-01T16:18:00Z,26.4040,-81.8810,10.0,4.24,85.27,6.46,'1111122,1111122,1111122' 
COMPS,ioos:station:USF.COMPS:BGC:1,2014-01-01T16:24:00Z,26.4040,-81.8810,10.0,4.4,84.59,5.88,'1111122,1111122,1111122' 
COMPS,ioos:station:USF.COMPS:BGC:1,2014-01-01T16:30:00Z,26.4040,-81.8810,10.0,3.31,80.96,5.29,'1111122,1111122,1111122' 
COMPS,ioos:station:USF.COMPS:BGC:1,2014-01-01T16:36:00Z,26.4040,-81.8810,10.0,2.18,83.26,4.7,'1111122,1111122,1111122' 
COMPS,ioos:station:USF.COMPS:BGC:1,2014-01-01T16:42:00Z,26.4040,-81.8810,10.0,2.86,79.92,4.8,'1111122,1111122,1111122' 
COMPS,ioos:station:USF.COMPS:BGC:1,2014-01-01T16:48:00Z,26.4040,-81.8810,10.0,3.36,82.45,4.8,'1111122,1111122,1111122' 
COMPS,ioos:station:USF.COMPS:BGC:1,2014-01-01T16:54:00Z,26.4040,-81.8810,10.0,3.05,89.8,4.11,'1111122,1111122,1111122' 
COMPS,ioos:station:USF.COMPS:BGC:1,2014-01-01T17:00:00Z,26.4040,-81.8810,10.0,2.73,94.83,3.62,'1111122,1111122,1111122' 
COMPS,ioos:station:USF.COMPS:BGC:1,2014-01-01T17:06:00Z,26.4040,-81.8810,10.0,3.14,109.77,4.31,'1111122,1111122,1111122' 
COMPS,ioos:station:USF.COMPS:BGC:1,2014-01-01T17:12:00Z,26.4040,-81.8810,10.0,2.13,101.78,3.72,'1111122,1111122,1111122' 
COMPS,ioos:station:USF.COMPS:BGC:1,2014-01-01T17:18:00Z,26.4040,-81.8810,10.0,2.07,96.59,3.52,'1111122,1111122,1111122' 
COMPS,ioos:station:USF.COMPS:BGC:1,2014-01-01T17:24:00Z,26.4040,-81.8810,10.0,1.88,78.42,3.03,'1111122,1111122,1111122' 
COMPS,ioos:station:USF.COMPS:BGC:1,2014-01-01T17:30:00Z,26.4040,-81.8810,10.0,2.07,76.39,2.94,'1111122,1111122,1111122' 
COMPS,ioos:station:USF.COMPS:BGC:1,2014-01-01T17:36:00Z,26.4040,-81.8810,10.0,1.39,82.42,2.64,'1111122,1111122,1111122' 
COMPS,ioos:station:USF.COMPS:BGC:1,2014-01-01T17:42:00Z,26.4040,-81.8810,10.0,2.23,83.9,3.52,'1111122,1111122,1111122' 
COMPS,ioos:station:USF.COMPS:BGC:1,2014-01-01T17:48:00Z,26.4040,-81.8810,10.0,2.36,58.24,3.33,'1111122,1111122,1111122' 
COMPS,ioos:station:USF.COMPS:BGC:1,2014-01-01T17:54:00Z,26.4040,-81.8810,10.0,2.04,75.1,3.72,'1111122,1111122,1111122' 
COMPS,ioos:station:USF.COMPS:BGC:1,2014-01-01T18:00:00Z,26.4040,-81.8810,10.0,2.46,66.02,3.62,'1111122,1111122,1111122' 
COMPS,ioos:station:USF.COMPS:BGC:1,2014-01-01T18:06:00Z,26.4040,-81.8810,10.0,1.61,72.06,2.74,'1111122,1111122,1111122' 
COMPS,ioos:station:USF.COMPS:BGC:1,2014-01-01T18:12:00Z,26.4040,-81.8810,10.0,1.63,58.57,2.45,'1111122,1111122,1111122' 
COMPS,ioos:station:USF.COMPS:BGC:1,2014-01-01T18:18:00Z,26.4040,-81.8810,10.0,1.49,45.13,2.35,'1111122,1111122,1111122' 
COMPS,ioos:station:USF.COMPS:BGC:1,2014-01-01T18:24:00Z,26.4040,-81.8810,10.0,1.71,49.39,2.45,'1111122,1111122,1111122' 
COMPS,ioos:station:USF.COMPS:BGC:1,2014-01-01T18:30:00Z,26.4040,-81.8810,10.0,0.64,25.64,0.98,'1111122,1111122,1111122' 
COMPS,ioos:station:USF.COMPS:BGC:1,2014-01-01T18:36:00Z,26.4040,-81.8810,10.0,0.85,333.17,1.27,'1111122,1111122,1111122' 
COMPS,ioos:station:USF.COMPS:BGC:1,2014-01-01T18:42:00Z,26.4040,-81.8810,10.0,1.19,328.06,1.96,'1111122,1111122,1111122' 
COMPS,ioos:station:USF.COMPS:BGC:1,2014-01-01T18:48:00Z,26.4040,-81.8810,10.0,1.97,311.21,2.54,'1111122,1111122,1111122' 
COMPS,ioos:station:USF.COMPS:BGC:1,2014-01-01T18:54:00Z,26.4040,-81.8810,10.0,2.27,331.43,2.74,'1111122,1111122,1111122' 
COMPS,ioos:station:USF.COMPS:BGC:1,2014-01-01T19:00:00Z,26.4040,-81.8810,10.0,2.34,335.62,2.74,'1111122,1111122,1111122' 
COMPS,ioos:station:USF.COMPS:BGC:1,2014-01-01T19:06:00Z,26.4040,-81.8810,10.0,3.78,354.25,5.19,'1111122,1111122,1111122' 
COMPS,ioos:station:USF.COMPS:BGC:1,2014-01-01T19:12:00Z,26.4040,-81.8810,10.0,4.5,0.08,5.19,'1111122,1111122,1111122' 
COMPS,ioos:station:USF.COMPS:BGC:1,2014-01-01T19:18:00Z,26.4040,-81.8810,10.0,4.61,5.17,4.99,'1111122,1111122,1111122' 
COMPS,ioos:station:USF.COMPS:BGC:1,2014-01-01T19:24:00Z,26.4040,-81.8810,10.0,4.65,2.89,5.19,'1111122,1111122,1111122' 
COMPS,ioos:station:USF.COMPS:BGC:1,2014-01-01T19:30:00Z,26.4040,-81.8810,10.0,4.15,358.13,4.99,'1111122,1111122,1111122' 
COMPS,ioos:station:USF.COMPS:BGC:1,2014-01-01T19:36:00Z,26.4040,-81.8810,10.0,4.81,349.82,5.58,'1111122,1111122,1111122' 